Location: Newark
(51.3318°N, 0.0053°E)
Time: 12:04:00
(UTC+00:00)

RS-44 - Pass Details

Date: 05 July 2022
Orbit: 1175 x 1510 km, 82.5° (Epoch: 11 August)

Event Time Altitude Azimuth Distance (km) Brightness Sun altitude
Rises 23:06:09 0° 266° (W) 4,513 ? -14.8°
Reaches altitude 10° 23:10:55 10° 290° (WNW) 3,598 ? -15.0°
Maximum altitude 23:15:16 14° 320° (NW) 3,299 ? -15.2°
Drops below altitude 10° 23:19:43 10° 351° (N) 3,671 ? -15.3°
Sets 23:24:43 0° 14° (NNE) 4,667 ? -15.4°
